TimeEDT,TemperatureF,Dew PointF,Humidity,Sea Level PressureIn,VisibilityMPH,Wind Direction,Wind SpeedMPH,Gust SpeedMPH,PrecipitationIn,Events,Conditions,WindDirDegrees,DateUTC
12:54 AM,60.1,55.0,83,29.90,10.0,NNW,10.4,-,N/A,,Partly Cloudy,340,2013-07-24 04:54:00
1:54 AM,59.0,55.0,87,29.91,10.0,North,10.4,-,N/A,,Partly Cloudy,350,2013-07-24 05:54:00
2:54 AM,57.9,50.0,75,29.92,10.0,NNE,13.8,21.9,N/A,,Partly Cloudy,20,2013-07-24 06:54:00
3:54 AM,55.9,48.9,77,29.91,10.0,North,8.1,-,N/A,,Partly Cloudy,10,2013-07-24 07:54:00
4:54 AM,54.0,50.0,86,29.93,10.0,NNW,6.9,-,N/A,,Partly Cloudy,340,2013-07-24 08:54:00
5:54 AM,53.1,50.0,89,29.95,10.0,North,5.8,-,N/A,,Partly Cloudy,350,2013-07-24 09:54:00
6:54 AM,53.1,50.0,89,29.97,10.0,North,6.9,-,N/A,,Partly Cloudy,350,2013-07-24 10:54:00
7:54 AM,55.9,50.0,80,29.99,10.0,North,9.2,-,N/A,,Scattered Clouds,10,2013-07-24 11:54:00
8:54 AM,61.0,50.0,67,30.00,10.0,NE,10.4,18.4,N/A,,Scattered Clouds,40,2013-07-24 12:54:00
9:54 AM,64.0,51.1,63,30.01,10.0,NNE,11.5,-,N/A,,Scattered Clouds,30,2013-07-24 13:54:00
10:54 AM,66.0,52.0,60,30.01,10.0,NE,9.2,-,N/A,,Scattered Clouds,50,2013-07-24 14:54:00
11:54 AM,68.0,52.0,56,30.03,10.0,NE,9.2,-,N/A,,Scattered Clouds,40,2013-07-24 15:54:00
12:54 PM,70.0,53.1,55,30.03,10.0,North,6.9,-,N/A,,Scattered Clouds,10,2013-07-24 16:54:00
1:54 PM,70.0,52.0,53,30.02,10.0,ENE,5.8,-,N/A,,Scattered Clouds,60,2013-07-24 17:54:00
2:54 PM,72.0,53.1,51,30.01,10.0,NE,8.1,-,N/A,,Scattered Clouds,40,2013-07-24 18:54:00
3:54 PM,73.0,52.0,48,30.01,10.0,NNW,4.6,-,N/A,,Scattered Clouds,330,2013-07-24 19:54:00
4:54 PM,73.0,52.0,48,30.01,10.0,ESE,4.6,-,N/A,,Scattered Clouds,110,2013-07-24 20:54:00
5:54 PM,72.0,50.0,46,30.01,10.0,East,6.9,-,N/A,,Scattered Clouds,80,2013-07-24 21:54:00
6:54 PM,72.0,51.1,48,30.01,10.0,ENE,11.5,-,N/A,,Scattered Clouds,70,2013-07-24 22:54:00
7:54 PM,70.0,52.0,53,30.02,10.0,East,5.8,-,N/A,,Scattered Clouds,90,2013-07-24 23:54:00
8:54 PM,66.0,55.0,68,30.03,10.0,East,3.5,-,N/A,,Scattered Clouds,90,2013-07-25 00:54:00
9:54 PM,62.1,55.9,80,30.03,10.0,Calm,Calm,-,N/A,,Scattered Clouds,0,2013-07-25 01:54:00
10:54 PM,60.1,55.9,86,30.04,10.0,Calm,Calm,-,N/A,,Scattered Clouds,0,2013-07-25 02:54:00
11:54 PM,59.0,55.0,87,30.04,10.0,Calm,Calm,-,N/A,,Scattered Clouds,0,2013-07-25 03:54:00